Location: Bailleul
(50.3375°N, 2.8513°E)
Time: 13:48:53
(UTC+00:00)

CARTOSAT-1 - Pass Details

Date: 16 June 2021
Orbit: 616 x 618 km, 97.8° (Epoch: 29 July)

Event Time Altitude Azimuth Distance (km) Brightness Sun altitude
Exits shadow 21:10:53 - 171° (S) 2,168 5.8 -8.4°
Reaches altitude 10° 21:11:21 10° 172° (S) 1,979 5.6 -8.4°
Maximum altitude 21:15:39 73° 257° (WSW) 652 3.7 -8.8°
Drops below altitude 10° 21:20:00 10° 343° (NNW) 1,997 7.6 -9.2°
Sets 21:22:12 0° 345° (NNW) 2,908 8.6 -9.4°
